Lid_Strength_Index
4 4 3 3 3 2 2 2 1 1 1 1 0 -0 -0 -1 -1 0 0 -0 -0 -0 -0 -0 -1 -1 -1 -1 -2 -2 -2 -1 -1
5 4 3 3 2 2 2 1 2 1 1 1 0 0 -0 -0 -1 -1 -0 -1 -1 -0 -1 -1 -1 -1 -1 -2 -1 -2 -2 -0 -1
5 4 4 3 3 3 1 1 1 1 0 1 0 -0 -0 -0 -0 -1 -1 -1 -1 -1 -1 -1 -1 -1 -1 -1 -1 -1 -2 -1 -1
5 5 5 4 2 2 3 1 1 1 1 1 0 0 -0 -0 -0 -1 -1 -0 -1 -1 -1 -1 -1 -1 -1 -1 -1 -1 -1 -1 -1
4 4 4 3 3 2 2 2 2 2 1 1 0 -0 -0 0 -0 -1 -0 -0 -1 -1 -1 -1 -1 -1 -1 -1 -1 -1 -1 -0 -1
5 5 4 3 3 3 3 2 2 1 1 1 1 0 0 0 0 -0 -0 -0 -1 -1 -1 -1 -1 -1 -1 -1 -1 -1 -1 -1 -0
5 5 4 4 4 3 3 2 2 2 2 1 0 1 1 1 0 -0 -0 -1 -1 -1 -1 -1 -1 -1 -1 -1 -1 -1 -1 -0 -0
6 5 5 4 4 4 3 3 2 2 1 1 1 1 1 0 -0 -1 -0 -0 -1 -1 -1 -1 -1 -1 -1 -1 -1 -0 -0 -0 -0
6 6 5 4 4 4 3 3 2 2 2 1 1 1 1 0 0 -0 -0 -0 -0 -0 -1 -1 -1 -1 -0 -0 -0 6 5 1 -0
6 6 5 4 4 3 3 2 2 2 2 1 1 1 1 1 0 1 0 0 -0 0 0 -1 -0 -0 -0 0 2 8 6 4 -0
6 5 5 5 5 5 3 2 2 1 1 1 1 1 1 1 1 1 1 0 0 0 -0 -0 -0 -0 -0 1 4 9 8 5 -0
4 4 4 5 5 6 6 5 4 2 2 1 1 2 1 1 1 1 1 2 2 2 1 1 1 2 1 1 4 9 8 5 -0
4 4 5 6 7 7 6 7 6 5 4 3 3 2 1 1 0 1 1 2 1 1 1 1 0 1 2 4 5 9 9 6 -0
3 3 4 4 5 7 7 7 6 7 6 7 4 3 2 0 -0 0 0 0 0 0 1 1 2 2 2 3 5 7 9 9 2
3 3 4 4 5 5 4 5 6 7 7 6 5 4 3 2 1 1 1 -0 0 0 0 1 1 1 2 2 4 8 9 9 8
3 3 4 4 4 5 4 4 5 6 5 4 5 5 5 3 2 1 1 1 1 1 0 1 1 1 1 1 2 3 7 7 6
3 3 4 4 5 5 5 4 4 4 4 3 4 4 4 4 3 3 2 2 1 0 1 1 1 1 1 1 2 4 5 7 5
3 2 2 3 3 4 4 4 4 4 4 4 4 4 4 4 5 4 4 7 8 3 8 9 2 2 1 2 2 7 10 10 7
2 2 3 3 3 3 3 3 4 3 3 3 4 4 5 5 4 4 5 5 7 11 11 12 12 12 9 8 11 11 12 12 12
3 2 2 2 3 4 3 4 4 4 4 4 4 5 5 6 6 5 4 4 5 8 11 11 12 12 12 12 13 12 12 13 12